This is the latest recevied weather packets stored in our database for station/object K6HN. If no packets are shown the sender has not sent any weather packets the latest 10 day(s).
| Time | Temp. | Humidity | Pressure | Rain* | Wind** | Luminosity | Snow |
|---|---|---|---|---|---|---|---|
| 1777480078 | 13.33° C | 49% | 1004.4 hPa | 0 mm | - | - | - |
| 1777479178 | 12.78° C | 49% | 1004.4 hPa | 0 mm | - | - | - |
| 1777478278 | 12.22° C | 47% | 1004.4 hPa | 0 mm | - | - | - |
| 1777477378 | 11.67° C | 48% | 1004.1 hPa | 0 mm | - | - | - |
| 1777476478 | 11.11° C | 48% | 1004.4 hPa | 0 mm | - | - | - |
| 1777475578 | 11.11° C | 48% | 1004.4 hPa | 0 mm | - | - | - |
| 1777474678 | 11.11° C | 48% | 1004.4 hPa | 0 mm | - | - | - |
| 1777473778 | 10.56° C | 48% | 1004.1 hPa | 0 mm | - | - | - |
| 1777472878 | 10.56° C | 48% | 1004.1 hPa | 0 mm | - | - | - |
| 1777471978 | 10° C | 48% | 1004.1 hPa | 0 mm | - | - | - |
| 1777471078 | 10° C | 48% | 1003.7 hPa | 0 mm | - | - | - |
| 1777470178 | 10° C | 48% | 1003.7 hPa | 0 mm | - | - | - |
| 1777469278 | 10.56° C | 48% | 1003.4 hPa | 0 mm | - | - | - |
| 1777468378 | 10.56° C | 48% | 1003 hPa | 0 mm | - | - | - |
| 1777467478 | 10.56° C | 48% | 1003.4 hPa | 0 mm | - | - | - |
| 1777466578 | 10.56° C | 48% | 1003.4 hPa | 0 mm | - | - | - |
| 1777465678 | 11.11° C | 48% | 1003.7 hPa | 0 mm | - | - | - |
| 1777464778 | 11.11° C | 48% | 1003.7 hPa | 0 mm | - | - | - |
| 1777463878 | 11.11° C | 48% | 1003.7 hPa | 0 mm | - | - | - |
| 1777462978 | 11.11° C | 48% | 1004.1 hPa | 0 mm | - | - | - |
| 1777462078 | 11.11° C | 48% | 1004.4 hPa | 0 mm | - | - | - |
| 1777461178 | 11.11° C | 48% | 1004.1 hPa | 0 mm | - | - | - |
| 1777460278 | 11.11° C | 48% | 1004.1 hPa | 0 mm | - | - | - |
| 1777459378 | 11.11° C | 48% | 1004.4 hPa | 0 mm | - | - | - |
| 1777458478 | 11.11° C | 48% | 1004.4 hPa | 0 mm | - | - | - |
* Rain latest hour (hover to see other rain measurements)
** Current wind speed in m/s (hover to see current wind gust speed)